Voltar ao catálogo

BREEZE-M R/B

AtivoMEO
NORAD 41122·ROCKET BODY·🇷🇺 Russia

Lançado Dec 13, 2015 de Baikonur Cosmodrome

Loading…

Próximas Passagens (próximas 24 horas)

TLE

AtualizadoSource: Space-Track

Época: Sep 13, 2026, 11:06 UTC

1 41122U 15075B   26256.46299161 -.00000227  00000-0  00000-0 0  9999
2 41122   8.6711  57.6587 0340044 165.2716 195.8883  1.04641269 41129

Acompanhe BREEZE-M R/B em tempo real com AllMySat

Download on the App Store